Location: Unspecified
(47.9110°N, 14.3980°E)
Time: 05:22:50
(UTC+00:00)

Cosmos 2297 Rocket - Pass Details

Date: 06 August 2020
Orbit: 838 x 845 km, 71.0° (Epoch: 19 September)

Event Time Altitude Azimuth Distance (km) Brightness Sun altitude
Exits shadow 23:04:19 11° 100° (E) 2,407 4.4 -25.7°
Maximum altitude 23:04:48 11° 94° (E) 2,400 4.5 -25.7°
Drops below altitude 10° 23:06:05 10° 81° (E) 2,459 4.7 -25.7°
Sets 23:10:44 0° 46° (NE) 3,403 6.0 -25.7°
